Location: Newark
(45.4422°N, 16.2769°E)
Time: 01:47:41
(UTC+00:00)

Courier 1B Rocket - Pass Details

Date: 09 December 2019
Orbit: 920 x 1202 km, 28.2° (Epoch: 23 January)

Event Time Altitude Azimuth Distance (km) Brightness Sun altitude
Rises 09:16:39 0° 245° (WSW) 3,606 8.0 18.7°
Reaches altitude 10° 09:21:03 10° 217° (SW) 2,623 7.8 19.0°
Maximum altitude 09:23:32 12° 194° (SSW) 2,431 8.2 19.2°
Drops below altitude 10° 09:26:00 10° 170° (S) 2,602 9.4 19.3°
Sets 09:30:19 0° 142° (SE) 3,545 9.3 19.6°
